SCP
0 0 0 0 0 0 0 0 0 0 0 0 0 0 0 0 0 0 0 0 0 0 0 0 0 0 0 0 0 0 0 0 0 0 0 0 0 0 0 0 0 0 0 0
0 0 0 0 0 0 0 0 0 0 0 0 0 0 0 0 0 0 0 0 0 0 0 0 0 0 0 0 0 0 0 0 0 0 0 0 0 0 0 0 0 0 0 0
0 0 0 0 0 0 0 0 0 0 0 0 0 0 0 0 0 0 0 0 0 0 0 0 0 0 0 0 0 0 0 0 0 0 0 0 0 0 0 0 0 0 0 0
0 0 0 0 0 0 0 0 0 0 0 0 0 0 0 0 0 0 0 0 0 0 0 0 0 0 0 0 0 0 0 0 0 0 0 0 0 0 0 0 0 0 0 0
0 0 0 0 0 0 0 0 0 0 0 0 0 0 0 0 0 0 0 0 0 0 0 0 0 0 0 0 0 0 0 0 0 0 0 0 0 0 0 0 0 0 0 0
0 0 0 0 0 0 0 0 0 0 0 0 0 0 0 0 0 0 0 0 0 0 0 0 0 0 0 0 0 0 0 0 0 0 0 0 0 0 0 0 0 0 0 0
0 0 0 0 0 0 0 0 0 0 0 0 0 0 0 0 0 0 0 0 0 0 0 0 0 0 0 0 0 0 0 0 0 0 0 0 0 0 0 0 0 0 0 0
0 0 0 0 0 0 0 0 0 0 0 0 0 0 0 0 0 0 0 0 0 0 0 0 0 0 0 0 0 0 0 0 0 0 0 0 0 0 0 0 0 0 0 0
0 0 0 0 0 0 0 0 0 0 0 0 0 0 0 0 0 0 0 0 0 0 0 0 0 0 0 0 0 0 0 0 0 0 0 0 0 0 0 0 0 0 0 0
0 0 0 0 0 0 0 0 0 0 0 0 0 0 0 0 0 0 0 0 0 0 0 0 0 0 0 0 0 0 0 0 0 0 0 0 0 0 0 0 0 0 0 0
0 0 0 0 0 0 0 0 0 0 0 0 0 0 0 0 0 0 0 0 0 0 0 0 0 0 0 0 0 0 0 0 0 0 0 0 0 0 0 0 0 0 0 0
0 0 0 0 0 0 0 0 0 0 0 0 0 0 0 0 0 0 0 0 0 0 0 0 0 0 0 0 0 0 0 0 0 0 0 0 0 0 0 0 0 0 0 0
0 0 0 0 0 0 0 0 0 0 0 0 0 0 0 0 0 0 0 0 0 0 0 0 0 0 0 0 0 0 0 0 0 0 0 0 0 0 0 0 0 0 0 0
0 0 0 0 0 0 0 0 0 0 0 0 0 0 0 0 0 0 0 0 0 0 0 0 0 0 0 0 0 0 0 0 0 0 0 0 0 0 0 0 0 0 0 0
0 0 0 0 0 0 0 0 0 0 0 0 0 0 0 0 0 0 0 0 0 0 0 0 0 0 0 0 0 0 0 0 0 0 0 0 0 0 0 0 0 0 0 0
0 0 0 0 0 0 0 0 0 0 0 0 0 0 0 0 0 0 0 0 0 0 0 0 0 0 0 0 0 0 0 0 0 0 0 0 0 0 0 0 0 0 0 0
0 0 0 0 0 0 0 0 0 0 0 0 0 0 0 0 0 0 0 0 0 0 0 0 0 0 0 0 0 0 0 0 0 0 0 0 0 0 0 0 0 0 0 0
0 0 0 0 0 0 0 0 0 0 0 0 0 0 0 0 0 0 0 0 0 0 0 0 0 0 0 0 0 0 0 0 0 0 0 0 0 0 0 0 0 0 0 0
0 0 0 0 0 0 0 0 0 0 0 0 0 0 0 0 0 0 0 0 0 0 0 0 0 0 0 0 0 0 0 0 0 0 0 0 0 0 0 0 0 0 0 0
0 0 0 0 0 0 0 0 0 0 0 0 0 0 0 0 0 0 0 0 0 0 0 0 0 0 0 0 0 0 0 0 0 0 0 0 0 0 0 0 0 0 0 0
0 0 0 0 0 0 0 0 0 0 0 0 0 0 0 0 0 0 0 0 0 0 0 0 0 0 0 0 0 0 0 0 0 0 0 0 0 0 0 0 0 0 0 0
0 0 0 0 0 0 0 0 0 0 0 0 0 0 0 0 0 0 0 0 0 0 0 0 0 0 0 0 0 0 0 0 0 0 0 0 0 0 0 0 0 0 0 0
0 0 0 0 0 0 0 0 0 0 0 0 0 0 0 0 0 0 0 0 0 0 0 0 0 0 0 0 0 0 0 0 0 0 0 0 0 0 0 0 0 0 0 0
0 0 0 0 0 0 0 0 0 0 0 0 0 0 0 0 0 0 0 0 0 0 0 0 0 0 0 0 0 0 0 0 0 0 0 0 0 0 0 0 0 0 0 0
0 0 0 0 0 0 0 0 0 0 0 0 0 0 0 0 0 0 0 0 0 0 0 0 0 0 0 0 0 0 0 0 0 0 0 0 0 0 0 0 0 0 0 0
0 0 0 0 0 0 0 0 0 0 0 0 0 0 0 0 0 0 0 0 0 0 0 0 0 0 0 0 0 0 0 0 0 0 0 0 0 0 0 0 0 0 0 0
0 0 0 0 0 0 0 0 0 0 0 0 0 0 0 0 0 0 0 0 0 0 0 0 0 0 0 0 0 0 0 0 0 0 0 0 0 0 0 0 0 0 0 0
Wind_Speed
7 6 6 7 8 8 10 10 10 7 6 2 0 1 1 1 1 1 2 3 3 2 2 1 1 1 2 2 1 1 1 2 2 2 2 2 2 3 3 4 4 4 4 4
8 7 7 8 8 8 9 9 9 7 5 1 0 1 1 1 1 1 2 2 3 2 2 1 1 1 1 1 1 1 0 1 1 2 2 3 3 3 3 3 4 4 5 5
8 7 9 9 7 8 7 7 7 7 2 0 1 1 0 1 1 2 2 2 2 2 2 1 1 0 1 1 1 0 0 0 0 1 2 2 2 2 3 4 4 4 5 5
7 7 10 1 2 3 4 3 3 3 1 2 1 0 1 1 1 2 1 1 1 1 1 1 1 1 0 0 1 1 0 0 1 1 1 2 2 3 3 3 4 4 5 5
6 8 6 3 2 2 5 4 2 2 1 0 0 2 3 2 2 1 1 1 1 1 1 1 0 0 1 1 1 1 0 1 1 1 2 2 2 3 3 3 3 4 4 4
7 8 6 1 2 2 5 5 1 1 1 1 2 3 1 2 2 1 2 2 1 1 1 1 1 1 1 1 0 1 1 1 1 2 2 3 3 3 2 3 3 3 3 4
8 8 3 3 1 3 6 1 2 1 1 2 2 3 2 1 1 1 1 2 1 1 1 1 0 1 1 0 1 2 2 2 2 3 3 3 3 2 2 2 2 3 3 3
6 7 3 3 1 2 3 3 1 0 1 1 0 1 1 1 2 2 1 2 2 1 1 1 0 0 0 1 1 2 2 2 2 3 3 2 2 2 2 3 3 3 3 3
2 1 4 1 1 2 2 1 0 1 1 0 0 1 1 2 2 2 1 1 1 1 1 1 0 1 1 1 1 2 2 2 2 3 3 3 3 3 3 3 4 3 3 3
2 1 1 0 0 1 1 1 1 1 1 0 1 1 1 1 1 1 1 1 1 1 1 1 1 1 1 1 2 2 3 3 3 3 3 3 3 3 3 4 4 4 4 4
4 2 2 2 0 1 1 1 0 0 0 0 0 0 1 1 1 1 1 1 2 2 2 2 2 2 2 2 2 3 3 3 3 3 3 3 3 3 4 3 3 4 4 4
3 2 3 3 2 1 1 1 0 0 1 1 0 1 1 1 0 1 1 2 2 2 2 2 2 3 3 3 2 3 3 3 3 3 2 3 3 3 2 3 3 4 5 6
3 4 3 3 2 2 1 1 1 1 1 1 1 0 1 1 0 1 1 2 2 2 2 2 2 3 4 3 3 3 4 3 3 3 3 3 3 4 4 3 4 6 6 6
2 2 2 2 2 1 1 1 1 1 0 0 0 0 0 0 1 1 2 2 2 2 2 2 3 3 4 4 3 3 4 3 4 4 4 4 4 4 4 4 4 4 5 7
2 2 2 1 2 2 2 2 1 0 1 1 0 0 0 1 1 2 2 2 2 2 3 3 3 3 3 3 3 3 3 3 3 4 4 4 4 4 4 5 4 4 3 3
1 1 1 1 1 1 2 2 1 0 0 1 1 1 1 1 1 1 2 2 2 2 3 3 3 3 3 3 3 3 3 2 4 4 4 4 4 4 4 4 4 4 4 3
2 2 2 1 1 1 1 1 1 1 1 1 1 1 1 1 1 1 2 2 2 2 3 3 3 3 4 3 4 4 3 2 4 5 4 4 4 3 4 4 4 4 4 3
3 2 2 2 1 1 1 1 1 1 1 1 1 1 1 1 1 2 2 2 2 3 3 4 4 4 4 4 4 4 4 3 3 3 4 4 4 4 4 5 5 5 4 3
2 2 2 1 1 2 2 2 1 2 2 2 1 1 1 1 2 2 2 3 3 3 3 4 3 4 5 4 4 4 4 4 4 4 4 3 4 4 4 5 4 4 4 3
2 2 2 2 2 1 1 1 2 2 1 1 1 1 1 1 2 2 3 3 3 3 4 4 4 4 4 3 5 5 4 4 3 3 3 4 4 4 4 4 4 3 3 3
2 2 2 2 1 1 1 1 1 1 1 1 1 1 1 2 2 3 3 3 3 3 4 3 3 3 3 3 5 5 4 3 3 3 3 3 3 3 3 3 3 3 3 3
1 2 2 1 1 1 1 1 1 1 0 0 1 1 2 2 2 2 2 3 3 3 3 3 3 3 4 5 5 4 3 3 3 3 3 3 3 3 3 3 3 3 3 3
2 2 2 2 1 1 1 1 1 1 1 1 1 1 2 3 3 3 2 2 3 3 4 3 4 4 6 5 4 4 3 3 3 3 3 3 3 3 3 4 3 3 3 3
2 2 2 2 1 2 1 1 1 1 1 1 1 1 2 2 2 2 2 1 1 3 4 3 3 5 6 4 3 3 2 3 3 4 3 3 3 3 4 4 4 3 3 4
2 2 2 2 2 1 1 2 2 2 2 1 1 1 1 2 3 3 3 3 2 3 3 1 1 4 4 3 3 3 3 2 3 4 4 4 4 4 4 4 4 4 4 4
2 2 2 2 2 2 2 2 2 1 1 1 1 1 1 1 2 2 2 3 4 3 4 3 2 3 3 3 3 4 4 3 3 4 4 4 4 5 4 4 5 4 4 4
2 2 2 2 2 2 2 1 1 1 1 1 1 1 2 2 2 3 3 3 3 3 3 3 3 3 3 3 4 3 3 4 4 4 4 4 4 4 4 5 4 4 4 4
Wind_Direction
268 275 266 257 259 252 249 261 265 259 259 261 132 79 39 41 73 112 108 107 97 96 100 96 84 58 57 73 80 113 172 173 166 173 187 195 197 200 202 207 209 210 214 214
255 251 254 254 257 256 254 258 257 256 260 300 0 52 77 76 73 95 103 105 102 95 102 104 82 58 55 63 55 58 204 199 158 167 180 192 197 201 206 213 219 220 219 216
255 251 253 244 254 253 250 257 252 256 268 164 245 298 32 30 67 69 75 87 105 95 82 86 90 110 110 114 121 93 43 298 217 189 186 194 194 201 213 221 226 229 227 225
252 242 241 225 34 286 257 247 274 284 230 234 288 326 74 48 42 60 52 64 77 80 96 92 108 116 120 169 169 159 179 314 285 235 219 210 207 212 227 233 232 235 237 235
246 241 241 199 174 243 247 234 269 265 225 212 327 211 142 70 47 53 46 61 72 70 105 111 95 132 178 226 216 181 188 288 289 292 266 249 246 233 229 231 235 235 234 233
242 248 248 79 77 280 254 220 100 236 187 192 246 238 123 57 33 50 62 69 71 98 91 92 117 158 167 186 269 286 287 280 281 265 271 269 263 252 236 229 231 238 234 232
243 245 241 48 33 221 236 38 74 226 202 217 268 334 27 49 52 69 65 54 48 62 63 56 57 169 163 181 288 289 281 266 258 254 254 261 261 253 242 236 237 241 239 238
241 241 231 61 201 249 5 26 48 346 218 231 317 34 53 77 82 73 55 38 25 31 47 30 338 241 237 296 301 297 285 272 270 269 267 264 257 247 242 245 238 240 240 240
295 352 56 79 356 357 324 322 347 2 8 300 174 100 67 72 72 66 60 37 12 19 43 18 325 282 310 314 298 292 286 284 283 273 263 261 255 241 233 233 244 245 243 242
249 208 297 274 358 318 336 337 354 26 19 50 142 93 93 94 72 43 28 359 335 325 354 6 343 331 327 312 300 288 284 284 276 269 266 264 262 250 246 241 243 249 252 253
247 251 253 218 327 356 349 335 29 102 282 293 205 145 158 144 59 356 342 332 321 318 323 329 324 319 317 311 293 287 285 279 273 269 273 269 273 283 270 271 281 273 269 262
264 265 278 264 268 268 248 226 189 233 281 288 263 217 201 169 180 301 310 309 302 303 310 317 311 319 324 309 288 282 275 275 276 272 270 271 276 281 274 261 241 239 259 275
286 287 289 277 262 263 237 202 188 225 256 296 322 280 220 182 201 278 293 303 303 299 304 309 309 312 313 304 282 273 273 280 284 280 273 273 274 278 277 248 230 231 232 238
279 274 255 255 260 261 231 209 204 239 258 319 334 295 256 307 317 310 313 315 307 302 304 303 307 307 304 297 283 277 273 263 267 273 274 273 273 275 275 275 267 255 233 224
261 258 257 245 232 223 226 213 212 169 114 49 2 314 297 300 309 317 325 318 307 295 293 294 301 304 300 298 289 278 282 284 283 284 279 278 278 279 282 279 277 276 269 239
228 209 196 187 183 201 224 231 237 24 7 347 335 341 330 330 329 326 320 317 312 314 320 314 315 316 307 303 294 277 275 281 279 282 277 276 278 281 287 284 276 274 272 273
209 202 208 211 203 221 255 268 279 300 322 327 313 305 310 333 326 318 321 330 325 323 322 315 313 310 301 295 287 285 284 269 249 265 275 283 284 283 284 278 274 273 270 277
231 221 215 215 219 233 256 267 266 283 290 285 270 275 292 301 303 308 315 322 321 320 324 320 319 304 296 290 289 287 283 281 274 276 282 284 289 285 283 280 276 276 276 258
223 202 187 197 221 238 258 274 282 288 280 276 260 263 261 260 272 287 299 302 303 308 319 323 323 291 294 303 296 279 283 286 284 283 283 281 269 271 277 280 280 280 283 281
189 184 184 185 187 215 252 268 274 279 284 292 276 260 273 278 274 278 288 288 302 320 323 324 298 283 286 289 284 280 285 286 286 285 285 282 283 283 284 282 280 279 279 281
175 177 188 189 182 199 234 261 270 284 300 315 317 317 325 323 314 303 292 298 324 329 311 300 285 293 297 306 272 277 287 293 292 288 285 292 296 289 288 289 290 292 292 287
191 187 191 199 213 229 246 259 274 281 278 324 328 335 337 328 326 319 309 317 331 351 311 307 320 349 324 295 275 280 284 286 287 287 289 294 292 292 293 292 287 290 296 296
216 199 199 209 222 238 254 261 267 276 298 311 325 339 343 335 329 324 326 351 335 342 312 325 351 338 304 280 282 284 287 287 289 284 282 284 285 290 294 289 283 287 292 290
206 196 204 209 219 231 247 266 258 265 273 276 296 324 313 308 314 321 345 39 323 312 313 350 335 305 287 282 289 292 294 293 289 283 282 283 283 287 290 288 286 286 289 291
196 199 197 210 226 235 247 245 227 223 234 245 270 283 303 324 329 340 338 338 336 297 312 331 249 275 279 298 305 302 297 306 304 299 297 289 286 287 286 284 289 291 290 290
213 221 207 226 249 262 255 244 244 245 248 255 270 283 307 322 321 319 313 322 331 323 314 326 330 287 301 312 310 310 310 301 281 280 291 291 294 295 293 291 287 287 288 290
224 221 218 224 220 230 236 235 247 262 277 293 300 306 312 311 312 323 322 321 325 322 323 323 318 312 312 313 315 314 310 305 304 304 299 294 295 294 295 296 298 298 297 296